Regional Weather Roundup
Issued by NWS

Home | Current Version | Previous Version | Text Only | Print | Product List | Glossary On
Versions: 1 2 3 4 5 6 7 8 9 10 11 12 13 14 15 16 17 18 19 20 21 22 23 24 25 26 27 28 29 30 31 32 33 34 35 36 37 38 39 40 41 42 43 44 45 46 47 48 49 50
000
ASCA42 TJSJ 311911
RWRPR
PUERTO RICO/U.S. VIRGIN ISLANDS HOURLY WEATHER ROUNDUP
NATIONAL WEATHER SERVICE SAN JUAN PR
300 PM AST FRI OCT 31 2014

PRZ001-004-312000-
PUERTO RICO

CITY           SKY/WX    TMP DP  RH WIND       PRES   REMARKS
SAN JUAN LMM   PTSUNNY   82  77  83 VRB5      29.87R HX  91
AGUADILLA      TSTM      79  75  89 NE8       29.86F
CEIBA          LGT RAIN N/A N/A N/A SW6       29.89S
$$

PRZ006-007-312000-
U.S. VIRGIN ISLANDS

CITY           SKY/WX    TMP DP  RH WIND       PRES   REMARKS
CHARLOTTE AMA  HVY RAIN  77  75  94 SW10G24   29.88  VSB 3/4
CHRISTIANSTED  MOSUNNY   86  73  66 SE10      29.88S HX  93
$$

HOURLY WEATHER ROUNDUP FOR THE NEWS MEDIA

CITY           SKY/WX    TMP DP  RH WIND       PRES   REMARKS
MIAMI          MOSUNNY   86  64  47 W12       29.78F
ORLANDO        SUNNY     79  48  33 NW16      29.80F
NEW YORK       CLOUDY    55  39  54 NE12      29.92F
NEWARK         CLOUDY    52  37  56 N12       29.92F
CHICAGO        PTSUNNY   40  23  50 N33G47    30.17R WCI  28
HARTFORD       CLOUDY    52  42  69 NE13      29.94F
BOSTON         CLOUDY    51  38  60 E13       29.99F
DALLAS         MOSUNNY   66  41  40 N22G29    30.31F
PHILADELPHIA   CLOUDY    53  36  52 N9        29.91F



USA.gov is the U.S. government's official web portal to all federal, state and local government web resources and services.